ARG1334 SACO-SBFL

Flight info

Callsign ARG1334
Flight time 1h 54m
Altitude FL390
Route MAVBI UM418 NELOX UN857 ITBEB UM540 DADMO UTBE1B
Aircraft B38M/M-SDE2E3FGHIRWXY/LB1

Departure

Time 2026-04-22 17:16
Airport Ingeniero Aeronáutico Ambrosio L.V. Taravella International Airport (SACO)

Arrival

Time 2026-04-22 19:11
Airport Hercílio Luz International Airport (SBFL)
Time Latitude Longitude Altitude Speed Heading
2026-04-22 16:21 -31.31686 -64.21151 1615 ft 0 kts 306°
2026-04-22 17:06 -31.31687 -64.21150 1622 ft 2 kts 306°
2026-04-22 17:07 -31.31700 -64.21125 1621 ft 4 kts 285°
2026-04-22 17:07 -31.31700 -64.21106 1625 ft 4 kts 207°
2026-04-22 17:07 -31.31694 -64.21105 1615 ft 1 kts 164°
2026-04-22 17:07 -31.31693 -64.21106 1615 ft 0 kts 164°
2026-04-22 17:11 -31.31696 -64.21105 1625 ft 2 kts 164°
2026-04-22 17:12 -31.31713 -64.21098 1623 ft 4 kts 158°
2026-04-22 17:12 -31.31739 -64.21079 1617 ft 5 kts 139°
2026-04-22 17:12 -31.31771 -64.21045 1615 ft 7 kts 154°
2026-04-22 17:12 -31.31821 -64.21036 1624 ft 8 kts 186°
2026-04-22 17:13 -31.31881 -64.21038 1621 ft 9 kts 174°
2026-04-22 17:13 -31.31953 -64.21029 1617 ft 11 kts 174°
2026-04-22 17:13 -31.32037 -64.21024 1622 ft 13 kts 180°
2026-04-22 17:13 -31.32133 -64.21024 1615 ft 15 kts 180°
2026-04-22 17:14 -31.32241 -64.21023 1619 ft 16 kts 179°
2026-04-22 17:14 -31.32344 -64.21020 1618 ft 5 kts 179°
2026-04-22 17:14 -31.32386 -64.21012 1618 ft 7 kts 159°
2026-04-22 17:14 -31.32426 -64.20969 1616 ft 9 kts 121°
2026-04-22 17:15 -31.32436 -64.20921 1620 ft 9 kts 90°
2026-04-22 17:15 -31.32395 -64.20837 1619 ft 11 kts 47°
2026-04-22 17:15 -31.32334 -64.20766 1618 ft 14 kts 44°
2026-04-22 17:15 -31.32263 -64.20685 1614 ft 15 kts 44°
2026-04-22 17:16 -31.32073 -64.20471 1616 ft 74 kts 44°
2026-04-22 17:16 -31.31535 -64.19867 1622 ft 138 kts 44°
2026-04-22 17:16 -31.30732 -64.18998 1907 ft 156 kts 43°
2026-04-22 17:16 -31.29919 -64.18152 2628 ft 167 kts 43°
2026-04-22 17:17 -31.29014 -64.17180 3167 ft 181 kts 45°
2026-04-22 17:17 -31.28151 -64.16071 3678 ft 194 kts 65°
2026-04-22 17:17 -31.27916 -64.14465 4030 ft 213 kts 94°
2026-04-22 17:17 -31.27955 -64.12647 4455 ft 236 kts 90°
2026-04-22 17:18 -31.27949 -64.10647 4898 ft 256 kts 89°
2026-04-22 17:18 -31.27925 -64.08555 5642 ft 260 kts 88°
2026-04-22 17:18 -31.27891 -64.06435 6600 ft 263 kts 87°
2026-04-22 17:18 -31.27849 -64.04250 7396 ft 278 kts 87°
2026-04-22 17:19 -31.27746 -63.99514 8916 ft 298 kts 86°
2026-04-22 17:19 -31.27637 -63.94589 10510 ft 314 kts 86°
2026-04-22 17:20 -31.27511 -63.89196 11468 ft 347 kts 86°
2026-04-22 17:20 -31.27378 -63.83464 12978 ft 359 kts 87°
2026-04-22 17:21 -31.27310 -63.80536 13733 ft 364 kts 87°
2026-04-22 17:21 -31.27169 -63.74538 15136 ft 375 kts 87°
2026-04-22 17:22 -31.27021 -63.68368 16521 ft 386 kts 87°
2026-04-22 17:22 -31.26945 -63.65218 17164 ft 391 kts 87°
2026-04-22 17:22 -31.26786 -63.58791 18448 ft 402 kts 87°
2026-04-22 17:23 -31.26704 -63.55513 19006 ft 406 kts 86°
2026-04-22 17:23 -31.26535 -63.48858 20119 ft 415 kts 86°
2026-04-22 17:23 -31.26447 -63.45476 20657 ft 419 kts 86°
2026-04-22 17:24 -31.26358 -63.42061 21195 ft 423 kts 86°
2026-04-22 17:24 -31.26267 -63.38610 21724 ft 428 kts 86°
2026-04-22 17:24 -31.26175 -63.35131 22261 ft 432 kts 85°
2026-04-22 17:24 -31.26081 -63.31610 22792 ft 436 kts 85°
2026-04-22 17:25 -31.25985 -63.28054 23316 ft 441 kts 85°
2026-04-22 17:25 -31.25886 -63.24467 23797 ft 445 kts 85°
2026-04-22 17:25 -31.25786 -63.20843 24216 ft 449 kts 85°
2026-04-22 17:25 -31.25684 -63.17186 24611 ft 453 kts 85°
2026-04-22 17:26 -31.25560 -63.13501 25014 ft 457 kts 84°
2026-04-22 17:26 -31.25381 -63.09792 25414 ft 460 kts 84°
2026-04-22 17:26 -31.25206 -63.06049 25799 ft 464 kts 84°
2026-04-22 17:26 -31.25030 -63.02275 26172 ft 468 kts 84°
2026-04-22 17:27 -31.24853 -62.98467 26555 ft 472 kts 83°
2026-04-22 17:27 -31.24672 -62.94631 26924 ft 476 kts 83°
2026-04-22 17:27 -31.24490 -62.90765 27285 ft 480 kts 83°
2026-04-22 17:27 -31.24305 -62.86866 27645 ft 483 kts 83°
2026-04-22 17:28 -31.24118 -62.82942 28012 ft 487 kts 83°
2026-04-22 17:28 -31.23927 -62.78984 28362 ft 490 kts 83°
2026-04-22 17:28 -31.23735 -62.75004 28707 ft 494 kts 83°
2026-04-22 17:28 -31.23539 -62.70987 29048 ft 498 kts 83°
2026-04-22 17:29 -31.23341 -62.66947 29390 ft 501 kts 83°
2026-04-22 17:29 -31.23123 -62.62878 29712 ft 504 kts 82°
2026-04-22 17:29 -31.22873 -62.58788 30041 ft 508 kts 82°
2026-04-22 17:29 -31.22625 -62.54663 30341 ft 511 kts 82°
2026-04-22 17:30 -31.22377 -62.50516 30608 ft 514 kts 82°
2026-04-22 17:30 -31.22125 -62.46346 30868 ft 518 kts 82°
2026-04-22 17:30 -31.21871 -62.42150 31140 ft 521 kts 82°
2026-04-22 17:30 -31.21614 -62.37926 31409 ft 524 kts 82°
2026-04-22 17:31 -31.21354 -62.33675 31657 ft 527 kts 82°
2026-04-22 17:31 -31.21090 -62.29402 31905 ft 530 kts 82°
2026-04-22 17:31 -31.20825 -62.25108 32158 ft 533 kts 82°
2026-04-22 17:31 -31.20556 -62.20784 32410 ft 536 kts 82°
2026-04-22 17:32 -31.20284 -62.16441 32661 ft 539 kts 82°
2026-04-22 17:32 -31.20009 -62.12074 32904 ft 542 kts 82°
2026-04-22 17:32 -31.19729 -62.07685 33146 ft 545 kts 81°
2026-04-22 17:32 -31.19438 -62.03274 33388 ft 548 kts 81°
2026-04-22 17:33 -31.19244 -62.00319 33551 ft 549 kts 81°
2026-04-22 17:33 -31.18851 -61.94377 33863 ft 553 kts 81°
2026-04-22 17:33 -31.18553 -61.89896 34095 ft 556 kts 81°
2026-04-22 17:33 -31.18251 -61.85392 34309 ft 559 kts 81°
2026-04-22 17:34 -31.17948 -61.80869 34534 ft 561 kts 81°
2026-04-22 17:34 -31.17641 -61.76337 34759 ft 563 kts 81°
2026-04-22 17:34 -31.17332 -61.71784 34974 ft 565 kts 81°
2026-04-22 17:34 -31.17020 -61.67214 35221 ft 566 kts 81°
2026-04-22 17:35 -31.16706 -61.62646 35490 ft 566 kts 81°
2026-04-22 17:35 -31.16391 -61.58079 35759 ft 566 kts 81°
2026-04-22 17:35 -31.16075 -61.53514 36026 ft 566 kts 81°
2026-04-22 17:35 -31.15756 -61.48946 36288 ft 566 kts 81°
2026-04-22 17:36 -31.15435 -61.44369 36535 ft 566 kts 81°
2026-04-22 17:36 -31.15113 -61.39803 36787 ft 566 kts 81°
2026-04-22 17:36 -31.14790 -61.35233 37030 ft 566 kts 81°
2026-04-22 17:36 -31.14464 -61.30661 37269 ft 566 kts 81°
2026-04-22 17:37 -31.14139 -61.26088 37493 ft 566 kts 81°
2026-04-22 17:37 -31.13792 -61.21519 37712 ft 566 kts 80°
2026-04-22 17:37 -31.13423 -61.16962 37937 ft 566 kts 80°
2026-04-22 17:37 -31.13057 -61.12397 38165 ft 566 kts 80°
2026-04-22 17:38 -31.12692 -61.07833 38354 ft 566 kts 80°
2026-04-22 17:38 -31.12325 -61.03277 38558 ft 566 kts 80°
2026-04-22 17:38 -31.11956 -60.98711 38753 ft 566 kts 80°
2026-04-22 17:38 -31.11585 -60.94153 38911 ft 566 kts 80°
2026-04-22 17:39 -31.10839 -60.85033 38958 ft 564 kts 80°
2026-04-22 17:40 -31.09715 -60.71421 39133 ft 562 kts 80°
2026-04-22 17:40 -31.08956 -60.62348 39138 ft 563 kts 80°
2026-04-22 17:41 -31.08193 -60.53289 39143 ft 563 kts 80°
2026-04-22 17:41 -31.07422 -60.44220 39138 ft 562 kts 80°
2026-04-22 17:42 -31.06647 -60.35173 39136 ft 563 kts 80°
2026-04-22 17:42 -31.05863 -60.26100 39137 ft 563 kts 80°
2026-04-22 17:43 -31.05074 -60.17046 39135 ft 562 kts 80°
2026-04-22 17:43 -31.04278 -60.07992 39132 ft 562 kts 80°
2026-04-22 17:44 -31.03479 -59.98946 39134 ft 562 kts 80°
2026-04-22 17:44 -31.02698 -59.89899 39131 ft 562 kts 81°
2026-04-22 17:45 -31.01986 -59.80838 39128 ft 562 kts 81°
2026-04-22 17:45 -31.01258 -59.71790 39128 ft 562 kts 81°
2026-04-22 17:46 -31.00525 -59.62750 39128 ft 561 kts 81°
2026-04-22 17:46 -30.99785 -59.53712 39127 ft 561 kts 81°
2026-04-22 17:47 -30.99039 -59.44684 39127 ft 561 kts 81°
2026-04-22 17:47 -30.98287 -59.35658 39122 ft 560 kts 80°
2026-04-22 17:48 -30.97657 -59.28148 39123 ft 560 kts 81°
2026-04-22 17:48 -30.96767 -59.17632 39125 ft 560 kts 80°
2026-04-22 17:49 -30.95998 -59.08632 39129 ft 559 kts 80°
2026-04-22 17:49 -30.95223 -58.99629 39110 ft 560 kts 79°
2026-04-22 17:50 -30.94440 -58.90615 39124 ft 561 kts 79°
2026-04-22 17:50 -30.93653 -58.81598 39118 ft 560 kts 79°
2026-04-22 17:51 -30.92786 -58.72603 39123 ft 560 kts 79°
2026-04-22 17:51 -30.91909 -58.63616 39118 ft 559 kts 79°
2026-04-22 17:52 -30.91030 -58.54642 39117 ft 559 kts 79°
2026-04-22 17:52 -30.90143 -58.45666 39116 ft 559 kts 79°
2026-04-22 17:53 -30.89247 -58.36700 39114 ft 559 kts 79°
2026-04-22 17:53 -30.88339 -58.27744 39117 ft 558 kts 79°
2026-04-22 17:54 -30.87426 -58.18795 39115 ft 558 kts 79°
2026-04-22 17:54 -30.86507 -58.09846 39114 ft 558 kts 79°
2026-04-22 17:55 -30.85736 -58.02393 39119 ft 557 kts 79°
2026-04-22 17:55 -30.84651 -57.91964 39111 ft 557 kts 79°
2026-04-22 17:56 -30.83716 -57.83030 39112 ft 557 kts 79°
2026-04-22 17:56 -30.82819 -57.74088 39113 ft 558 kts 79°
2026-04-22 17:57 -30.81917 -57.65154 39106 ft 557 kts 79°
2026-04-22 17:57 -30.81009 -57.56227 39109 ft 557 kts 79°
2026-04-22 17:58 -30.80095 -57.47294 39103 ft 557 kts 79°
2026-04-22 17:58 -30.79176 -57.38369 39104 ft 557 kts 79°
2026-04-22 17:59 -30.78253 -57.29450 39102 ft 557 kts 79°
2026-04-22 17:59 -30.77322 -57.20530 39101 ft 557 kts 79°
2026-04-22 18:00 -30.76543 -57.13104 39100 ft 556 kts 80°
2026-04-22 18:00 -30.75445 -57.02709 39100 ft 556 kts 79°
2026-04-22 18:01 -30.74498 -56.93808 39101 ft 556 kts 79°
2026-04-22 18:01 -30.73545 -56.84911 39100 ft 556 kts 79°
2026-04-22 18:02 -30.72585 -56.76010 39099 ft 556 kts 79°
2026-04-22 18:02 -30.71609 -56.67111 39094 ft 556 kts 79°
2026-04-22 18:03 -30.70631 -56.58217 39098 ft 556 kts 80°
2026-04-22 18:03 -30.69657 -56.49324 39091 ft 556 kts 79°
2026-04-22 18:04 -30.68677 -56.40448 39083 ft 555 kts 80°
2026-04-22 18:04 -30.67692 -56.31576 39085 ft 555 kts 80°
2026-04-22 18:05 -30.66700 -56.22701 39086 ft 555 kts 80°
2026-04-22 18:05 -30.65721 -56.13828 39086 ft 555 kts 80°
2026-04-22 18:06 -30.64754 -56.04954 39081 ft 555 kts 80°
2026-04-22 18:06 -30.63781 -55.96086 39079 ft 555 kts 80°
2026-04-22 18:07 -30.62801 -55.87224 39076 ft 555 kts 80°
2026-04-22 18:07 -30.61815 -55.78360 39076 ft 554 kts 80°
2026-04-22 18:08 -30.60823 -55.69501 39074 ft 554 kts 80°
2026-04-22 18:08 -30.59826 -55.60650 39071 ft 554 kts 80°
2026-04-22 18:09 -30.58824 -55.51807 39068 ft 554 kts 80°
2026-04-22 18:09 -30.57815 -55.42969 39070 ft 554 kts 80°
2026-04-22 18:10 -30.56802 -55.34137 39065 ft 553 kts 80°
2026-04-22 18:10 -30.55783 -55.25305 39067 ft 553 kts 80°
2026-04-22 18:11 -30.54740 -55.16480 39069 ft 553 kts 79°
2026-04-22 18:11 -30.53646 -55.07674 39068 ft 553 kts 79°
2026-04-22 18:12 -30.52553 -54.98870 39069 ft 553 kts 79°
2026-04-22 18:12 -30.51624 -54.91530 39064 ft 553 kts 79°
2026-04-22 18:13 -30.50321 -54.81272 39060 ft 552 kts 79°
2026-04-22 18:13 -30.49198 -54.72489 39075 ft 552 kts 79°
2026-04-22 18:14 -30.48069 -54.63701 39066 ft 552 kts 79°
2026-04-22 18:14 -30.46934 -54.54918 39065 ft 552 kts 79°
2026-04-22 18:15 -30.45793 -54.46141 39071 ft 552 kts 79°
2026-04-22 18:15 -30.44647 -54.37369 39067 ft 551 kts 79°
2026-04-22 18:16 -30.43497 -54.28610 39067 ft 551 kts 79°
2026-04-22 18:16 -30.42340 -54.19848 39061 ft 551 kts 79°
2026-04-22 18:17 -30.41180 -54.11104 39065 ft 550 kts 79°
2026-04-22 18:17 -30.40014 -54.02366 39066 ft 550 kts 79°
2026-04-22 18:18 -30.38842 -53.93629 39061 ft 550 kts 79°
2026-04-22 18:18 -30.37665 -53.84899 39058 ft 550 kts 79°
2026-04-22 18:19 -30.36484 -53.76176 39063 ft 549 kts 79°
2026-04-22 18:19 -30.35297 -53.67453 39058 ft 549 kts 79°
2026-04-22 18:20 -30.34096 -53.58737 39059 ft 549 kts 79°
2026-04-22 18:20 -30.32892 -53.50028 39055 ft 549 kts 79°
2026-04-22 18:21 -30.31716 -53.41323 39059 ft 549 kts 80°
2026-04-22 18:21 -30.30545 -53.32607 39052 ft 549 kts 80°
2026-04-22 18:22 -30.29370 -53.23907 39053 ft 548 kts 80°
2026-04-22 18:22 -30.28189 -53.15212 39052 ft 548 kts 79°
2026-04-22 18:23 -30.27003 -53.06528 39051 ft 548 kts 79°
2026-04-22 18:23 -30.25812 -52.97844 39048 ft 547 kts 80°
2026-04-22 18:24 -30.24016 -52.84836 39054 ft 547 kts 79°
2026-04-22 18:25 -30.22208 -52.71844 39053 ft 547 kts 79°
2026-04-22 18:25 -30.20995 -52.63179 39050 ft 547 kts 80°
2026-04-22 18:26 -30.19167 -52.50209 39054 ft 546 kts 80°
2026-04-22 18:26 -30.17943 -52.41562 39052 ft 546 kts 80°
2026-04-22 18:27 -30.16715 -52.32927 39055 ft 546 kts 80°
2026-04-22 18:27 -30.15483 -52.24298 39056 ft 545 kts 80°
2026-04-22 18:28 -30.14245 -52.15674 39060 ft 545 kts 80°
2026-04-22 18:28 -30.13003 -52.07052 39056 ft 545 kts 80°
2026-04-22 18:29 -30.11755 -51.98438 39053 ft 545 kts 80°
2026-04-22 18:29 -30.10502 -51.89828 39056 ft 545 kts 80°
2026-04-22 18:30 -30.08511 -51.76937 39061 ft 545 kts 80°
2026-04-22 18:31 -30.07269 -51.68326 39065 ft 545 kts 80°
2026-04-22 18:31 -30.06009 -51.59719 39062 ft 545 kts 80°
2026-04-22 18:32 -30.04743 -51.51117 39050 ft 545 kts 80°
2026-04-22 18:32 -30.03472 -51.42517 39043 ft 545 kts 80°
2026-04-22 18:33 -30.02196 -51.33920 39025 ft 545 kts 80°
2026-04-22 18:33 -30.00915 -51.25327 39015 ft 545 kts 80°
2026-04-22 18:34 -29.99015 -51.16938 39007 ft 539 kts 60°
2026-04-22 18:34 -29.97017 -51.13364 39018 ft 526 kts 43°
2026-04-22 18:34 -29.94596 -51.10215 39024 ft 527 kts 43°
2026-04-22 18:35 -29.89735 -51.03880 39025 ft 528 kts 42°
2026-04-22 18:35 -29.84833 -50.97602 39034 ft 528 kts 42°
2026-04-22 18:36 -29.79917 -50.91326 39041 ft 528 kts 42°
2026-04-22 18:36 -29.75004 -50.85062 39056 ft 528 kts 42°
2026-04-22 18:37 -29.70087 -50.78806 39057 ft 528 kts 42°
2026-04-22 18:37 -29.65984 -50.73592 39066 ft 528 kts 42°
2026-04-22 18:38 -29.60240 -50.66302 39089 ft 529 kts 42°
2026-04-22 18:38 -29.55317 -50.60066 39090 ft 527 kts 42°
2026-04-22 18:39 -29.50020 -50.54418 39065 ft 512 kts 28°
2026-04-22 18:39 -29.47162 -50.51965 39133 ft 516 kts 30°
2026-04-22 18:39 -29.41431 -50.47002 39072 ft 517 kts 30°
2026-04-22 18:40 -29.35679 -50.42063 39092 ft 517 kts 30°
2026-04-22 18:40 -29.29934 -50.37138 39088 ft 517 kts 30°
2026-04-22 18:41 -29.24186 -50.32217 39087 ft 517 kts 30°
2026-04-22 18:41 -29.21319 -50.29766 38906 ft 513 kts 30°
2026-04-22 18:41 -29.18459 -50.27323 38059 ft 516 kts 30°
2026-04-22 18:42 -29.15577 -50.24861 37196 ft 520 kts 30°
2026-04-22 18:42 -29.12688 -50.22396 36714 ft 515 kts 30°
2026-04-22 18:42 -29.09842 -50.19969 36335 ft 509 kts 30°
2026-04-22 18:42 -29.07021 -50.17567 35831 ft 505 kts 30°
2026-04-22 18:43 -29.04210 -50.15173 35298 ft 504 kts 30°
2026-04-22 18:43 -29.01410 -50.12790 34772 ft 502 kts 30°
2026-04-22 18:43 -28.98622 -50.10419 34282 ft 500 kts 30°
2026-04-22 18:43 -28.95841 -50.08057 33751 ft 498 kts 30°
2026-04-22 18:44 -28.93073 -50.05706 33210 ft 496 kts 30°
2026-04-22 18:44 -28.90320 -50.03370 32712 ft 493 kts 30°
2026-04-22 18:44 -28.87584 -50.01050 32247 ft 489 kts 30°
2026-04-22 18:44 -28.84862 -49.98744 31772 ft 487 kts 30°
2026-04-22 18:45 -28.82157 -49.96453 31287 ft 484 kts 30°
2026-04-22 18:45 -28.79464 -49.94179 30814 ft 481 kts 30°
2026-04-22 18:45 -28.76784 -49.91913 30337 ft 481 kts 30°
2026-04-22 18:45 -28.74112 -49.89648 29734 ft 479 kts 30°
2026-04-22 18:46 -28.71446 -49.87395 29271 ft 476 kts 30°
2026-04-22 18:46 -28.68814 -49.85172 28765 ft 470 kts 31°
2026-04-22 18:46 -28.66203 -49.82970 28422 ft 465 kts 31°
2026-04-22 18:46 -28.63624 -49.80794 27995 ft 461 kts 31°
2026-04-22 18:47 -28.61051 -49.78629 27490 ft 460 kts 32°
2026-04-22 18:47 -28.58494 -49.76472 27045 ft 457 kts 32°
2026-04-22 18:47 -28.55949 -49.74328 26598 ft 454 kts 32°
2026-04-22 18:47 -28.53423 -49.72202 26162 ft 452 kts 32°
2026-04-22 18:48 -28.50907 -49.70086 25719 ft 449 kts 33°
2026-04-22 18:48 -28.48405 -49.67983 25283 ft 447 kts 33°
2026-04-22 18:48 -28.45924 -49.65861 24759 ft 447 kts 34°
2026-04-22 18:48 -28.43454 -49.63737 24357 ft 444 kts 34°
2026-04-22 18:49 -28.41006 -49.61637 23958 ft 441 kts 34°
2026-04-22 18:49 -28.38567 -49.59550 23515 ft 438 kts 35°
2026-04-22 18:49 -28.36149 -49.57481 23033 ft 435 kts 35°
2026-04-22 18:49 -28.33747 -49.55427 22605 ft 431 kts 35°
2026-04-22 18:50 -28.31368 -49.53394 22210 ft 426 kts 35°
2026-04-22 18:50 -28.29019 -49.51386 21812 ft 420 kts 35°
2026-04-22 18:50 -28.26702 -49.49410 21427 ft 416 kts 35°
2026-04-22 18:50 -28.24403 -49.47447 21037 ft 413 kts 35°
2026-04-22 18:51 -28.22124 -49.45505 20659 ft 409 kts 35°
2026-04-22 18:51 -28.19865 -49.43579 20277 ft 405 kts 35°
2026-04-22 18:51 -28.17626 -49.41671 19908 ft 402 kts 35°
2026-04-22 18:51 -28.15407 -49.39782 19531 ft 399 kts 35°
2026-04-22 18:52 -28.13203 -49.37906 19175 ft 396 kts 35°
2026-04-22 18:52 -28.11016 -49.36047 18811 ft 392 kts 35°
2026-04-22 18:52 -28.08848 -49.34204 18465 ft 389 kts 35°
2026-04-22 18:52 -28.06692 -49.32372 18067 ft 387 kts 35°
2026-04-22 18:53 -28.04559 -49.30560 17712 ft 383 kts 36°
2026-04-22 18:53 -28.02445 -49.28765 17355 ft 378 kts 36°
2026-04-22 18:53 -28.00352 -49.26990 17018 ft 375 kts 36°
2026-04-22 18:53 -27.98283 -49.25236 16676 ft 371 kts 36°
2026-04-22 18:54 -27.96233 -49.23498 16340 ft 367 kts 36°
2026-04-22 18:54 -27.94200 -49.21776 16007 ft 364 kts 36°
2026-04-22 18:54 -27.92187 -49.20072 15674 ft 361 kts 36°
2026-04-22 18:54 -27.90190 -49.18382 15350 ft 358 kts 36°
2026-04-22 18:55 -27.88210 -49.16707 15030 ft 355 kts 37°
2026-04-22 18:55 -27.86244 -49.15045 14706 ft 352 kts 36°
2026-04-22 18:55 -27.84295 -49.13397 14387 ft 349 kts 37°
2026-04-22 18:55 -27.82360 -49.11763 14067 ft 347 kts 37°
2026-04-22 18:56 -27.80442 -49.10144 13730 ft 344 kts 37°
2026-04-22 18:56 -27.78534 -49.08535 13373 ft 342 kts 37°
2026-04-22 18:56 -27.76643 -49.06940 13064 ft 338 kts 37°
2026-04-22 18:56 -27.74776 -49.05365 12750 ft 334 kts 37°
2026-04-22 18:57 -27.72925 -49.03805 12449 ft 331 kts 37°
2026-04-22 18:57 -27.71095 -49.02263 12134 ft 327 kts 37°
2026-04-22 18:57 -27.69283 -49.00736 11846 ft 324 kts 36°
2026-04-22 18:57 -27.67488 -48.99226 11537 ft 321 kts 36°
2026-04-22 18:58 -27.65756 -48.97661 11217 ft 319 kts 47°
2026-04-22 18:58 -27.64607 -48.95562 10877 ft 316 kts 72°
2026-04-22 18:58 -27.64319 -48.93151 10609 ft 310 kts 95°
2026-04-22 18:58 -27.64587 -48.90771 10415 ft 303 kts 99°
2026-04-22 18:59 -27.64888 -48.88448 10251 ft 296 kts 99°
2026-04-22 18:59 -27.65193 -48.86185 10079 ft 289 kts 100°
2026-04-22 18:59 -27.65503 -48.83957 9789 ft 288 kts 100°
2026-04-22 18:59 -27.65816 -48.81738 9475 ft 286 kts 100°
2026-04-22 19:00 -27.66128 -48.79538 9202 ft 283 kts 100°
2026-04-22 19:00 -27.66486 -48.77364 8870 ft 284 kts 109°
2026-04-22 19:00 -27.67393 -48.75365 8237 ft 293 kts 123°
2026-04-22 19:00 -27.68465 -48.73374 7656 ft 303 kts 122°
2026-04-22 19:01 -27.69570 -48.71318 7046 ft 312 kts 123°
2026-04-22 19:01 -27.70712 -48.69200 6419 ft 321 kts 122°
2026-04-22 19:01 -27.71880 -48.67036 5888 ft 324 kts 123°
2026-04-22 19:01 -27.73041 -48.64886 5568 ft 318 kts 123°
2026-04-22 19:02 -27.74176 -48.62784 5350 ft 311 kts 123°
2026-04-22 19:02 -27.75287 -48.60725 5096 ft 305 kts 123°
2026-04-22 19:02 -27.76370 -48.58715 4940 ft 296 kts 123°
2026-04-22 19:02 -27.77424 -48.56759 4782 ft 288 kts 123°
2026-04-22 19:03 -27.78448 -48.54860 4644 ft 280 kts 123°
2026-04-22 19:03 -27.79439 -48.53016 4489 ft 269 kts 123°
2026-04-22 19:03 -27.80378 -48.51272 4376 ft 252 kts 123°
2026-04-22 19:03 -27.81255 -48.49643 4262 ft 235 kts 123°
2026-04-22 19:04 -27.82075 -48.48118 4161 ft 221 kts 123°
2026-04-22 19:04 -27.82847 -48.46682 4105 ft 209 kts 124°
2026-04-22 19:04 -27.83574 -48.45304 4011 ft 203 kts 119°
2026-04-22 19:04 -27.83837 -48.43745 3736 ft 207 kts 84°
2026-04-22 19:05 -27.83305 -48.42248 3475 ft 209 kts 52°
2026-04-22 19:05 -27.82203 -48.41193 3272 ft 210 kts 33°
2026-04-22 19:05 -27.80967 -48.40310 3052 ft 211 kts 32°
2026-04-22 19:05 -27.79729 -48.39442 2832 ft 207 kts 31°
2026-04-22 19:06 -27.78521 -48.38604 2606 ft 201 kts 30°
2026-04-22 19:06 -27.77240 -48.38190 2410 ft 186 kts 356°
2026-04-22 19:06 -27.76091 -48.38517 2239 ft 162 kts 331°
2026-04-22 19:07 -27.74644 -48.40159 2065 ft 143 kts 305°
2026-04-22 19:07 -27.74114 -48.41096 2018 ft 142 kts 303°
2026-04-22 19:07 -27.73603 -48.42041 1931 ft 141 kts 302°
2026-04-22 19:07 -27.73095 -48.42986 1832 ft 141 kts 302°
2026-04-22 19:08 -27.72588 -48.43930 1728 ft 141 kts 303°
2026-04-22 19:08 -27.72082 -48.44872 1574 ft 140 kts 303°
2026-04-22 19:08 -27.71573 -48.45819 1424 ft 144 kts 303°
2026-04-22 19:08 -27.71053 -48.46795 1244 ft 147 kts 305°
2026-04-22 19:09 -27.70522 -48.47781 1051 ft 148 kts 304°
2026-04-22 19:09 -27.69987 -48.48777 870 ft 148 kts 304°
2026-04-22 19:09 -27.69629 -48.49431 787 ft 146 kts 303°
2026-04-22 19:09 -27.68942 -48.50732 523 ft 144 kts 307°
2026-04-22 19:10 -27.68426 -48.51687 311 ft 142 kts 308°
2026-04-22 19:10 -27.67904 -48.52637 131 ft 145 kts 306°
2026-04-22 19:10 -27.67395 -48.53606 36 ft 134 kts 303°
2026-04-22 19:10 -27.66973 -48.54363 27 ft 86 kts 303°
2026-04-22 19:11 -27.66778 -48.54738 27 ft 37 kts 300°
2026-04-22 19:11 -27.66655 -48.54971 28 ft 31 kts 301°
2026-04-22 19:11 -27.66602 -48.55099 26 ft 9 kts 263°
2026-04-22 19:11 -27.66652 -48.55130 26 ft 10 kts 181°
2026-04-22 19:12 -27.66727 -48.55117 27 ft 11 kts 167°
2026-04-22 19:12 -27.66792 -48.55070 27 ft 11 kts 128°
2026-04-22 19:12 -27.66837 -48.54987 27 ft 13 kts 121°
2026-04-22 19:12 -27.66892 -48.54900 26 ft 14 kts 129°
2026-04-22 19:13 -27.66934 -48.54812 26 ft 9 kts 116°
2026-04-22 19:13 -27.66972 -48.54742 26 ft 12 kts 118°
2026-04-22 19:13 -27.67016 -48.54655 26 ft 14 kts 122°
2026-04-22 19:13 -27.67066 -48.54591 26 ft 9 kts 171°
2026-04-22 19:14 -27.67129 -48.54619 27 ft 10 kts 187°
2026-04-22 19:14 -27.67196 -48.54602 27 ft 6 kts 139°
2026-04-22 19:14 -27.67230 -48.54553 27 ft 10 kts 120°
2026-04-22 19:14 -27.67260 -48.54524 27 ft 3 kts 185°
2026-04-22 19:15 -27.67269 -48.54529 27 ft 2 kts 211°
2026-04-22 19:15 -27.67279 -48.54536 27 ft 2 kts 211°
2026-04-22 19:15 -27.67284 -48.54540 27 ft 1 kts 209°
2026-04-22 19:15 -27.67287 -48.54542 27 ft 0 kts 209°
2026-04-22 19:16 -27.67289 -48.54543 27 ft 0 kts 209°